Temperature
6 6 6 6 5 5 5 5 5 4 4 4 4 4 4 4 3 3 3 3 3 3 3 3 3 3 2 2 2 2 2 2 2 3 3 4 4 5 5 5 5 6 6
6 6 5 5 5 5 4 4 4 4 4 4 4 4 4 3 3 3 3 3 3 3 3 3 3 2 2 2 2 2 2 2 2 2 3 3 4 4 5 5 5 5 6
5 5 5 5 4 4 4 4 4 4 4 4 3 3 3 3 3 3 2 2 2 2 2 2 2 2 2 2 2 2 2 2 2 2 3 3 3 4 4 5 5 5 5
5 4 4 4 4 4 4 4 4 3 3 3 3 3 3 2 2 2 2 2 2 2 2 2 2 2 2 2 2 2 2 2 2 2 2 3 3 4 4 4 4 5 5
4 4 4 4 3 3 3 3 3 3 3 2 2 2 2 2 2 2 2 2 2 2 2 2 2 2 2 2 2 2 2 2 2 2 2 3 3 3 3 4 4 4 4
4 3 3 3 3 3 3 2 2 2 2 2 2 1 2 2 2 2 1 1 1 2 2 2 2 2 2 2 2 2 2 2 2 2 2 3 3 3 3 3 3 3 3
3 3 3 2 2 2 2 2 1 1 1 1 1 1 1 1 1 1 1 1 1 1 1 2 2 2 2 2 2 2 2 2 2 2 2 3 3 3 3 3 3 3 3
2 2 2 2 1 1 1 1 1 1 1 0 1 1 1 1 1 1 1 1 1 1 1 1 1 1 2 1 1 1 2 2 2 2 2 3 3 3 3 3 3 3 3
1 1 1 1 1 1 0 0 0 0 0 -0 -0 0 0 0 1 1 1 1 1 1 1 1 1 1 1 1 1 1 2 2 2 2 2 2 2 3 3 3 3 2 2
1 1 1 0 0 -0 -0 -0 -0 -1 -1 -1 -1 -0 -0 0 0 0 0 0 1 1 1 1 1 1 1 1 1 1 1 2 2 2 2 2 2 2 2 2 3 2 2
-0 -0 -0 -0 -0 -1 -1 -1 -1 -1 -1 -1 -1 -0 -0 -0 -0 0 0 0 1 1 1 1 1 1 1 1 1 1 1 1 1 1 2 2 2 2 2 2 2 2 2
-1 -1 -1 -1 -1 -1 -1 -1 -1 -2 -2 -1 -1 -1 -1 -0 -0 -0 -0 -0 0 0 0 1 1 1 1 1 1 1 1 1 1 1 1 1 2 2 2 2 2 2 2
-1 -1 -1 -1 -1 -1 -1 -2 -2 -2 -2 -2 -2 -1 -1 -1 -1 -1 -1 -0 -0 -0 -0 0 0 0 1 1 1 1 1 1 1 1 1 1 1 1 1 1 1 1 1
-2 -2 -2 -2 -2 -2 -2 -2 -2 -2 -2 -2 -2 -2 -2 -2 -1 -1 -1 -1 -1 -0 -0 -0 0 0 1 1 1 1 0 0 1 1 1 1 1 1 1 1 1 1 1
-2 -2 -2 -2 -2 -2 -2 -2 -3 -2 -3 -3 -3 -2 -2 -2 -1 -2 -2 -1 -1 -1 -1 -0 -0 -0 0 0 0 0 0 0 0 0 0 1 1 1 1 1 1 1 1
-3 -3 -3 -3 -3 -3 -3 -3 -3 -3 -3 -3 -3 -3 -3 -2 -2 -2 -2 -1 -1 -1 -1 -1 -1 -1 -1 -0 -0 -0 0 0 0 0 1 1 1 1 0 0 0 0 0
-4 -4 -3 -3 -4 -4 -4 -4 -4 -3 -3 -3 -3 -3 -3 -2 -2 -2 -2 -2 -2 -1 -1 -1 -1 -1 -1 -1 -0 -0 0 0 0 0 0 0 0 0 0 0 0 0 -0
-4 -4 -4 -4 -4 -4 -4 -4 -4 -4 -4 -3 -3 -3 -3 -2 -2 -2 -2 -2 -2 -2 -2 -2 -2 -2 -1 -1 -0 -0 -0 -0 -0 0 0 0 0 0 0 -0 -0 -0 -0
-4 -4 -4 -4 -4 -5 -5 -5 -5 -4 -4 -4 -4 -3 -3 -3 -3 -2 -2 -2 -2 -3 -2 -2 -2 -2 -1 -1 -1 -0 -0 -0 -0 -0 -0 -0 -0 -0 -0 -0 -1 -1 -1
-5 -5 -5 -5 -5 -5 -5 -5 -5 -5 -5 -5 -4 -4 -4 -3 -3 -3 -3 -3 -3 -3 -2 -2 -2 -2 -1 -1 -1 -1 -1 -0 -0 -0 -0 -0 -0 -0 -1 -1 -1 -1 -1
-5 -5 -5 -5 -5 -6 -6 -6 -6 -6 -5 -5 -5 -5 -4 -4 -4 -4 -3 -3 -3 -3 -3 -2 -2 -2 -1 -1 -1 -1 -1 -1 -1 -0 -1 -1 -1 -1 -1 -1 -1 -1 -1
-6 -6 -6 -6 -6 -6 -6 -6 -6 -6 -6 -6 -5 -5 -5 -4 -4 -4 -4 -3 -3 -3 -3 -2 -2 -2 -1 -1 -1 -1 -1 -1 -1 -1 -1 -1 -1 -1 -1 -1 -1 -1 -2
-6 -6 -6 -6 -6 -6 -6 -6 -6 -6 -6 -6 -6 -5 -5 -5 -5 -4 -4 -4 -4 -3 -3 -2 -2 -2 -1 -2 -1 -1 -1 -1 -1 -1 -1 -1 -1 -1 -1 -1 -1 -1 -2
-7 -7 -7 -7 -7 -7 -7 -7 -7 -6 -6 -6 -6 -6 -6 -5 -5 -5 -4 -4 -4 -3 -3 -2 -2 -2 -2 -2 -1 -1 -1 -1 -1 -1 -1 -1 -1 -1 -1 -1 -1 -1 -2
-7 -7 -7 -7 -7 -7 -7 -7 -7 -7 -6 -6 -6 -6 -6 -5 -5 -5 -5 -4 -4 -3 -3 -2 -2 -2 -2 -2 -1 -1 -1 -1 -1 -1 -1 -1 -1 -1 -1 -1 -1 -2 -2
-8 -8 -8 -7 -7 -7 -7 -7 -7 -7 -7 -6 -6 -6 -6 -6 -5 -5 -5 -4 -4 -3 -3 -3 -2 -2 -2 -2 -2 -1 -1 -1 -1 -1 -1 -1 -1 -1 -1 -1 -2 -2 -2
Wind_Speed
4 4 5 5 6 6 6 8 8 8 8 9 9 9 9 9 9 9 10 10 11 11 10 10 11 9 8 8 7 8 8 8 11 10 7 7 7 7 7 7 8 8 8
4 4 5 5 5 6 7 8 8 9 9 9 9 9 9 9 9 10 11 11 11 12 11 11 11 9 10 9 8 9 9 8 9 12 9 7 7 6 5 5 5 5 5
4 4 5 5 6 7 8 8 8 9 9 9 8 9 10 10 10 10 10 11 11 12 11 12 12 10 11 9 9 9 8 8 8 9 10 6 5 4 3 3 3 2 3
3 4 5 6 7 7 8 8 8 8 8 9 9 9 10 10 10 10 10 11 12 12 11 12 12 11 11 11 9 9 8 8 7 8 8 6 5 3 2 2 2 2 1
3 4 6 7 6 7 7 7 7 7 8 8 9 9 9 9 9 10 10 11 11 11 11 11 11 12 14 12 9 8 8 7 7 7 7 6 4 2 2 1 1 2 2
4 5 6 6 7 7 7 7 7 8 8 8 9 9 10 9 14 16 13 10 10 11 11 10 10 11 13 15 16 15 12 10 9 7 6 6 6 3 2 2 1 0 2
5 6 6 7 7 7 8 7 8 8 8 9 9 9 10 12 16 17 16 10 10 10 10 9 9 9 10 9 12 13 13 15 14 10 8 8 6 5 4 2 2 1 1
6 7 7 7 8 8 7 8 8 8 8 8 9 9 10 12 16 17 16 10 9 9 9 9 9 9 9 9 7 8 8 7 8 7 7 7 6 5 4 3 3 2 2
6 7 7 7 8 8 8 9 8 7 8 8 9 9 10 12 15 16 14 7 7 7 7 7 8 9 11 11 7 7 5 4 3 3 4 4 5 5 4 3 4 3 0
7 8 7 7 7 8 8 8 7 7 8 9 9 9 9 10 14 15 13 6 6 6 5 5 8 9 11 10 7 6 5 3 2 1 1 1 2 2 2 3 5 4 2
8 8 7 7 7 7 7 7 7 8 8 8 10 9 9 10 11 13 12 5 5 5 4 4 4 8 9 8 6 5 5 3 2 2 1 1 1 1 1 1 1 3 3
7 7 7 7 7 7 7 8 7 7 8 9 9 9 7 7 9 10 11 9 7 4 4 3 3 5 5 5 3 4 4 2 2 2 2 1 2 1 1 2 3 3 2
7 8 8 8 7 7 7 8 7 6 6 8 7 8 7 6 6 10 10 9 8 4 2 3 4 4 2 1 2 2 2 2 3 3 2 2 2 2 3 3 4 5 6
8 8 8 8 8 7 6 6 6 6 7 7 7 8 7 6 5 5 4 5 5 4 3 3 3 2 1 1 1 2 2 3 3 3 3 2 3 3 3 2 3 3 4
8 8 8 7 7 7 7 6 7 7 7 8 7 7 7 7 7 9 6 4 3 2 2 1 2 2 2 2 2 2 2 3 3 3 4 3 3 3 3 2 3 3 3
7 7 7 6 6 6 6 8 9 9 13 12 11 10 8 9 11 10 8 7 6 4 2 1 1 1 1 2 2 2 2 3 3 3 4 4 3 3 3 3 3 4 5
7 7 6 6 6 6 6 6 8 10 11 11 12 12 11 11 10 8 7 6 4 3 1 1 1 1 1 1 2 2 2 3 3 3 3 4 4 3 4 4 4 5 5
6 8 8 6 6 6 6 6 6 7 8 8 9 12 11 10 8 7 6 4 2 2 1 1 1 1 1 1 2 2 3 3 3 3 3 3 4 4 4 4 4 5 5
6 5 6 5 5 5 5 5 5 6 6 7 7 8 10 9 7 6 5 2 1 1 1 1 1 1 1 1 2 2 3 3 3 3 3 3 4 4 5 4 5 6 5
6 9 8 6 4 4 5 5 5 5 6 6 6 6 6 6 4 4 4 2 2 1 1 1 1 1 1 2 2 2 3 3 3 3 3 3 3 4 5 5 5 5 5
5 6 9 6 4 4 5 5 5 5 5 5 5 6 8 4 3 4 3 3 2 1 1 1 1 1 1 2 2 3 3 3 3 3 4 4 4 4 4 5 5 6 6
5 5 4 4 4 4 4 4 4 5 5 6 5 6 8 5 3 3 3 3 3 2 1 1 1 1 1 2 2 2 3 3 3 4 4 4 4 5 5 5 6 6 7
4 5 4 4 4 6 6 4 4 4 5 5 5 4 4 3 3 3 3 3 3 2 2 1 1 1 1 1 1 2 2 3 3 4 4 5 5 5 5 6 7 8 7
4 4 4 4 4 4 4 4 4 5 5 4 4 4 3 3 3 3 3 3 3 3 2 1 1 2 2 2 2 2 2 3 4 4 5 5 5 5 5 6 7 7 7
4 3 4 4 4 4 4 4 4 4 4 4 4 3 3 3 3 3 3 3 3 3 2 2 2 2 2 2 2 3 5 6 7 6 5 5 6 6 6 7 7 7 7
3 4 3 3 3 3 4 4 4 4 4 4 3 3 3 3 3 3 3 2 3 3 2 2 2 3 3 3 4 5 6 8 9 9 7 6 6 6 7 7 8 8 8
Wind_Direction
270 268 270 271 269 268 268 268 270 273 273 271 270 268 267 266 263 260 259 256 256 258 254 251 252 252 253 254 251 248 246 245 265 279 277 279 272 274 281 275 278 272 261
281 278 274 278 280 276 274 276 275 274 273 270 271 270 268 268 264 260 264 261 257 259 256 254 255 255 252 252 249 249 248 246 255 273 283 279 272 272 274 274 283 286 267
293 289 288 289 286 281 279 279 278 275 276 276 271 269 269 268 267 263 262 262 258 256 255 254 254 251 253 253 249 250 251 254 251 263 276 276 276 274 285 288 289 292 292
298 296 295 291 288 286 286 285 282 281 281 280 275 270 269 268 267 265 263 264 262 259 256 254 252 246 249 253 252 250 251 253 253 259 267 271 265 261 258 263 308 342 347
310 304 295 294 291 290 291 291 291 289 288 285 284 282 277 275 270 271 271 270 267 265 262 257 252 249 250 252 253 250 248 252 255 260 262 267 258 247 249 232 266 357 17
305 297 299 301 299 295 294 295 296 294 292 290 287 285 283 282 284 285 283 276 272 265 264 261 256 252 253 256 257 255 250 248 250 253 259 254 250 239 232 223 179 123 330
301 299 301 302 300 296 296 299 295 293 292 293 291 287 284 284 288 290 289 286 274 264 258 257 260 255 256 251 258 261 258 254 249 247 246 248 236 216 200 218 202 223 276
303 302 304 305 303 302 302 299 296 294 293 292 292 290 289 290 293 294 296 290 281 270 257 248 248 251 248 247 251 258 257 254 248 240 233 234 226 205 198 198 164 102 52
304 304 305 305 305 304 303 300 300 299 299 295 293 290 289 292 294 297 298 287 281 278 264 252 248 248 251 250 251 252 255 265 264 236 222 210 205 200 183 150 149 141 102
303 303 304 302 301 298 296 298 299 298 296 298 297 294 288 289 293 299 300 287 283 281 274 260 254 252 253 253 239 226 230 240 202 152 133 154 171 174 190 183 172 164 164
304 307 306 304 301 294 295 298 299 299 300 300 299 297 291 289 296 301 303 297 279 278 278 275 263 260 260 257 242 214 211 213 180 151 139 124 114 114 108 100 140 164 178
309 309 306 305 304 304 300 301 300 299 302 303 303 303 299 295 299 304 308 307 302 287 282 279 271 272 273 257 238 186 186 182 146 133 125 126 125 114 83 74 74 69 75
310 308 305 306 303 300 295 297 300 298 299 300 300 300 304 303 303 307 310 314 316 309 297 290 287 289 294 254 157 161 162 146 140 137 142 147 136 127 106 87 75 72 60
307 307 307 306 306 304 297 293 293 295 296 297 299 299 301 302 301 304 307 310 313 314 310 312 315 337 49 101 112 113 125 139 142 144 141 128 116 112 105 113 109 95 75
306 306 308 305 299 302 301 295 293 285 285 292 292 292 296 297 299 304 304 304 300 292 324 11 39 44 72 80 85 96 107 117 118 130 134 128 119 109 103 104 108 97 98
306 308 306 305 306 306 308 312 309 305 307 308 305 301 299 297 304 309 313 315 314 326 350 65 64 62 81 106 113 106 105 115 118 124 130 132 128 123 112 98 101 107 108
297 301 302 303 304 307 309 310 314 319 319 319 320 319 316 311 309 313 319 327 330 345 24 71 81 95 97 101 118 117 115 117 120 125 126 128 128 125 121 113 110 106 105
299 301 302 297 299 301 302 303 306 311 319 323 325 327 331 329 326 328 330 342 8 17 45 81 86 96 108 110 118 118 114 117 119 122 122 125 130 128 123 120 114 114 112
303 301 300 299 299 300 302 305 308 309 311 316 323 329 337 339 342 347 348 8 22 19 28 60 94 110 119 119 120 120 121 124 124 122 122 125 127 125 123 120 119 116 111
304 307 310 306 307 310 310 310 311 313 316 319 323 328 335 340 353 356 1 11 21 30 35 47 79 105 118 126 125 122 120 119 122 122 124 125 125 125 126 125 125 121 114
304 307 311 310 312 311 309 310 311 313 315 318 320 329 337 338 344 349 354 359 5 8 32 43 89 131 132 129 128 127 128 125 122 124 122 122 123 121 121 122 121 118 115
303 303 305 306 310 312 311 308 308 310 314 317 323 331 340 347 349 351 356 357 357 358 14 31 28 102 122 133 139 138 130 129 125 122 121 121 120 119 116 117 119 117 117
302 304 307 310 310 314 316 317 318 318 318 320 322 326 336 346 349 350 352 352 350 352 8 21 63 92 91 93 118 142 143 147 142 137 130 128 125 123 123 124 125 124 122
307 306 308 311 312 313 314 317 318 319 320 320 321 326 335 341 345 346 351 349 349 351 360 19 77 97 94 84 82 86 108 123 126 130 130 132 129 127 125 124 122 124 124
306 306 308 308 310 313 315 318 321 323 326 328 329 330 335 341 345 346 348 348 347 354 7 23 69 82 83 80 85 99 107 111 116 119 122 125 126 125 125 125 124 122 120
308 307 306 307 308 311 312 314 316 321 325 327 332 339 341 340 341 341 342 348 351 356 5 32 66 78 74 79 92 100 105 110 114 115 116 121 123 124 124 124 124 122 123
Height
1443 1442 1441 1439 1438 1436 1435 1433 1431 1429 1427 1425 1423 1420 1418 1416 1414 1413 1411 1409 1408 1406 1405 1405 1404 1404 1403 1402 1402 1401 1401 1400 1395 1391 1391 1391 1390 1389 1388 1388 1387 1385 1385
1438 1437 1436 1434 1433 1431 1429 1427 1425 1423 1421 1418 1416 1414 1411 1409 1407 1405 1403 1401 1400 1398 1397 1397 1396 1396 1395 1395 1394 1394 1393 1393 1391 1387 1385 1385 1384 1383 1382 1382 1381 1380 1380
1434 1432 1431 1429 1427 1425 1423 1421 1419 1416 1414 1412 1409 1407 1404 1402 1400 1398 1396 1393 1392 1391 1390 1389 1388 1388 1387 1388 1387 1386 1386 1386 1385 1383 1381 1380 1379 1379 1378 1377 1377 1376 1376
1429 1428 1426 1424 1422 1420 1418 1415 1413 1410 1407 1405 1402 1400 1397 1395 1392 1390 1388 1386 1384 1383 1382 1381 1381 1381 1380 1380 1380 1380 1380 1380 1379 1378 1376 1375 1374 1374 1374 1373 1372 1372 1373
1425 1423 1421 1419 1417 1415 1412 1409 1406 1404 1401 1398 1395 1392 1390 1387 1385 1383 1380 1378 1376 1375 1374 1374 1373 1373 1373 1374 1374 1373 1374 1373 1373 1373 1371 1370 1369 1370 1370 1370 1369 1369 1370
1420 1418 1417 1414 1412 1409 1406 1403 1401 1398 1395 1392 1388 1385 1382 1380 1378 1376 1374 1371 1369 1367 1366 1366 1366 1366 1367 1367 1367 1367 1368 1368 1367 1367 1367 1366 1365 1366 1367 1367 1367 1367 1366
1416 1414 1412 1409 1406 1404 1401 1398 1395 1392 1388 1385 1382 1378 1375 1373 1371 1369 1366 1364 1361 1360 1359 1359 1359 1359 1360 1361 1360 1361 1361 1362 1362 1362 1361 1361 1362 1363 1364 1364 1364 1364 1364
1412 1409 1407 1405 1402 1399 1396 1393 1390 1386 1383 1379 1375 1372 1369 1366 1364 1362 1360 1358 1355 1353 1352 1352 1353 1353 1354 1354 1354 1354 1354 1355 1356 1356 1357 1357 1358 1359 1361 1361 1362 1362 1363
1407 1405 1402 1400 1397 1394 1391 1388 1384 1381 1377 1373 1370 1367 1363 1361 1359 1357 1355 1352 1350 1348 1347 1347 1347 1347 1348 1348 1349 1349 1349 1349 1351 1352 1352 1354 1355 1356 1358 1359 1359 1360 1361
1403 1400 1398 1395 1392 1389 1386 1383 1380 1376 1372 1368 1365 1362 1359 1356 1354 1352 1350 1348 1345 1343 1342 1342 1342 1342 1342 1343 1344 1344 1344 1345 1346 1347 1349 1350 1352 1354 1355 1357 1357 1358 1359
1398 1396 1393 1390 1388 1385 1381 1378 1375 1371 1367 1364 1360 1357 1354 1352 1350 1348 1346 1344 1342 1339 1338 1337 1337 1337 1337 1338 1339 1340 1340 1342 1343 1344 1346 1347 1349 1351 1353 1354 1356 1357 1358
1394 1391 1388 1386 1383 1380 1377 1374 1370 1367 1363 1359 1356 1352 1350 1348 1346 1344 1342 1340 1339 1336 1334 1333 1332 1333 1333 1334 1335 1336 1337 1339 1340 1342 1343 1344 1346 1348 1350 1352 1354 1355 1357
1389 1387 1384 1381 1378 1376 1372 1369 1365 1362 1359 1356 1352 1349 1346 1344 1342 1340 1339 1337 1335 1333 1331 1330 1329 1329 1329 1330 1331 1333 1334 1336 1337 1339 1341 1343 1345 1347 1349 1350 1352 1353 1355
1385 1382 1379 1376 1373 1371 1368 1365 1362 1358 1355 1352 1349 1346 1343 1340 1338 1337 1335 1333 1332 1330 1328 1327 1327 1326 1327 1327 1329 1331 1333 1334 1336 1338 1339 1342 1344 1346 1347 1349 1351 1352 1354
1380 1378 1375 1372 1369 1366 1364 1361 1358 1355 1353 1350 1346 1343 1340 1337 1335 1334 1332 1330 1329 1327 1326 1325 1324 1324 1325 1326 1327 1329 1332 1334 1335 1337 1339 1341 1343 1345 1347 1349 1350 1352 1353
1376 1373 1370 1367 1365 1362 1359 1356 1354 1352 1349 1346 1343 1341 1337 1335 1333 1331 1330 1328 1327 1326 1325 1323 1323 1324 1325 1326 1327 1329 1331 1333 1335 1336 1338 1340 1342 1344 1346 1348 1350 1352 1353
1372 1369 1367 1364 1361 1359 1356 1353 1349 1346 1344 1342 1339 1337 1334 1331 1330 1328 1327 1326 1325 1324 1323 1323 1323 1324 1325 1326 1328 1329 1331 1333 1335 1337 1339 1341 1342 1344 1346 1348 1350 1352 1354
1368 1366 1363 1361 1358 1356 1353 1350 1347 1344 1340 1337 1335 1333 1331 1328 1327 1326 1325 1324 1323 1323 1323 1323 1323 1324 1325 1326 1328 1330 1331 1334 1336 1337 1339 1341 1343 1344 1346 1348 1350 1352 1355
1364 1362 1360 1357 1355 1353 1350 1348 1345 1342 1339 1335 1332 1330 1328 1326 1325 1324 1324 1323 1322 1323 1323 1323 1323 1324 1325 1327 1329 1330 1332 1334 1336 1338 1340 1341 1343 1345 1347 1349 1351 1354 1356
1360 1359 1357 1354 1352 1350 1348 1345 1343 1340 1337 1334 1331 1329 1327 1325 1323 1323 1323 1322 1322 1323 1323 1323 1324 1325 1326 1328 1329 1331 1333 1335 1337 1338 1340 1342 1344 1345 1347 1350 1352 1355 1357
1357 1355 1354 1352 1349 1347 1345 1343 1340 1338 1336 1333 1331 1329 1327 1325 1324 1323 1323 1323 1323 1323 1323 1324 1324 1326 1327 1328 1330 1332 1334 1335 1337 1339 1341 1343 1344 1346 1348 1351 1353 1356 1358
1354 1352 1350 1348 1346 1345 1343 1341 1339 1336 1334 1332 1330 1328 1327 1325 1324 1323 1323 1323 1323 1323 1324 1324 1325 1326 1328 1329 1331 1333 1334 1336 1338 1339 1341 1343 1345 1347 1349 1352 1354 1357 1360
1351 1349 1347 1346 1344 1343 1341 1339 1337 1335 1333 1331 1329 1328 1326 1325 1324 1323 1323 1323 1323 1323 1324 1325 1325 1327 1329 1330 1332 1334 1335 1337 1338 1340 1341 1343 1346 1348 1350 1353 1356 1358 1361
1348 1347 1345 1343 1342 1341 1339 1337 1336 1334 1332 1330 1329 1327 1326 1326 1325 1324 1324 1323 1323 1324 1324 1325 1326 1328 1329 1331 1333 1334 1336 1337 1339 1341 1342 1344 1346 1349 1352 1354 1357 1360 1363
1346 1344 1343 1342 1340 1339 1338 1336 1335 1333 1331 1330 1328 1327 1327 1326 1325 1325 1324 1324 1324 1325 1325 1326 1328 1329 1331 1332 1334 1335 1337 1338 1340 1342 1344 1346 1348 1350 1353 1356 1359 1362 1364
1344 1343 1341 1340 1339 1338 1336 1335 1334 1332 1331 1330 1329 1328 1327 1326 1326 1325 1325 1325 1325 1325 1326 1327 1329 1330 1332 1334 1335 1336 1337 1339 1341 1343 1345 1347 1350 1352 1355 1358 1361 1364 1366